"Channel","TEMPERATURE(C)","HUMIDITY","TimeStamp"
"1","20","48","03/12/2015 22:00"
"1","20","48","03/12/2015 21:55"
"1","20","48","03/12/2015 21:50"
"1","20","48","03/12/2015 21:45"
"1","20","48","03/12/2015 21:40"
"1","20","48","03/12/2015 21:35"
"1","20","48","03/12/2015 21:30"
"1","20","48","03/12/2015 21:25"
"1","20","48","03/12/2015 21:20"
"1","20","48","03/12/2015 21:15"
"1","20","48","03/12/2015 21:10"
"1","20","48","03/12/2015 21:05"
"1","20","48","03/12/2015 21:00"
"1","20","48","03/12/2015 20:55"
"1","20","48","03/12/2015 20:50"
"1","20","48","03/12/2015 20:45"
"1","20","48","03/12/2015 20:40"
"1","20","48","03/12/2015 20:35"
"1","20","48","03/12/2015 20:30"
"1","20","48","03/12/2015 20:25"
"1","19","48","03/12/2015 20:20"
"1","19","48","03/12/2015 20:15"
"1","19","48","03/12/2015 20:10"
"1","19","48","03/12/2015 20:05"
"1","19","49","03/12/2015 20:00"
"1","19","49","03/12/2015 19:55"
"1","19","49","03/12/2015 19:50"
"1","19","49","03/12/2015 19:45"
"1","19","48","03/12/2015 19:40"
"1","19","48","03/12/2015 19:35"
"1","19","48","03/12/2015 19:30"
"1","19","47","03/12/2015 19:25"
"1","19","46","03/12/2015 19:20"
"1","19","46","03/12/2015 19:15"
"1","19","46","03/12/2015 19:10"
"1","19","46","03/12/2015 19:05"
"1","19","45","03/12/2015 19:00"
"1","18","45","03/12/2015 18:55"
"1","18","44","03/12/2015 18:50"
"1","19","47","03/12/2015 18:45"
"1","19","48","03/12/2015 18:40"
"1","19","48","03/12/2015 18:35"
"1","19","48","03/12/2015 18:30"
"1","19","48","03/12/2015 18:25"
"1","19","48","03/12/2015 18:20"
"1","19","49","03/12/2015 18:15"
"1","19","49","03/12/2015 18:10"
"1","19","49","03/12/2015 18:05"
"1","19","49","03/12/2015 18:00"
"1","19","49","03/12/2015 17:55"
"1","19","49","03/12/2015 17:50"
"1","19","49","03/12/2015 17:45"
"1","19","49","03/12/2015 17:40"
"1","19","49","03/12/2015 17:35"
"1","19","49","03/12/2015 17:30"
"1","19","49","03/12/2015 17:25"
"1","19","49","03/12/2015 17:20"
"1","19","49","03/12/2015 17:15"
"1","19","48","03/12/2015 17:10"
"1","19","48","03/12/2015 17:05"
"1","19","48","03/12/2015 17:00"
"1","19","48","03/12/2015 16:55"
"1","19","48","03/12/2015 16:50"
"1","19","49","03/12/2015 16:45"
"1","19","49","03/12/2015 16:40"
"1","19","49","03/12/2015 16:35"
"1","19","49","03/12/2015 16:30"
"1","19","49","03/12/2015 16:25"
"1","19","49","03/12/2015 16:20"
"1","19","49","03/12/2015 16:15"
"1","19","49","03/12/2015 16:10"
"1","19","49","03/12/2015 16:05"
"1","19","49","03/12/2015 16:00"
"1","19","49","03/12/2015 15:55"
"1","19","49","03/12/2015 15:50"
"1","19","49","03/12/2015 15:45"
"1","19","49","03/12/2015 15:40"
"1","19","49","03/12/2015 15:35"
"1","19","49","03/12/2015 15:30"
"1","19","49","03/12/2015 15:25"
"1","19","49","03/12/2015 15:20"
"1","19","49","03/12/2015 15:15"
"1","20","49","03/12/2015 15:10"
"1","20","49","03/12/2015 15:05"
"1","20","49","03/12/2015 15:00"
"1","20","49","03/12/2015 14:55"
"1","20","49","03/12/2015 14:50"
"1","20","49","03/12/2015 14:45"
"1","20","49","03/12/2015 14:40"
"1","20","49","03/12/2015 14:35"
"1","20","49","03/12/2015 14:30"
"1","20","49","03/12/2015 14:25"
"1","20","49","03/12/2015 14:20"
"1","20","49","03/12/2015 14:15"
"1","20","49","03/12/2015 14:10"
"1","20","49","03/12/2015 14:05"
"1","20","49","03/12/2015 14:00"
"1","20","49","03/12/2015 13:55"
"1","20","49","03/12/2015 13:50"
"1","20","49","03/12/2015 13:45"
"1","20","49","03/12/2015 13:40"
"1","20","49","03/12/2015 13:35"
"1","20","49","03/12/2015 13:30"
"1","20","49","03/12/2015 13:25"
"1","20","49","03/12/2015 13:20"
"1","20","49","03/12/2015 13:15"
"1","20","49","03/12/2015 13:10"
"1","20","49","03/12/2015 13:05"
"1","20","49","03/12/2015 13:00"
"1","20","49","03/12/2015 12:55"
"1","20","49","03/12/2015 12:50"
"1","20","49","03/12/2015 12:45"
"1","20","49","03/12/2015 12:40"
"1","20","49","03/12/2015 12:35"
"1","20","49","03/12/2015 12:30"
"1","20","49","03/12/2015 12:25"
"1","20","49","03/12/2015 12:20"
"1","20","49","03/12/2015 12:15"
"1","20","49","03/12/2015 12:10"
"1","20","49","03/12/2015 12:05"
"1","20","50","03/12/2015 12:00"
"1","20","50","03/12/2015 11:55"
"1","20","50","03/12/2015 11:50"
"1","20","50","03/12/2015 11:45"
"1","20","50","03/12/2015 11:40"
"1","20","50","03/12/2015 11:35"
"1","20","50","03/12/2015 11:30"
"1","20","50","03/12/2015 11:25"
"1","20","50","03/12/2015 11:20"
"1","20","50","03/12/2015 11:15"
"1","20","50","03/12/2015 11:10"
"1","19","50","03/12/2015 11:05"
"1","20","50","03/12/2015 11:00"
"1","20","50","03/12/2015 10:55"
"1","20","50","03/12/2015 10:50"
"1","20","50","03/12/2015 10:45"
"1","20","50","03/12/2015 10:40"
"1","20","50","03/12/2015 10:35"
"1","20","50","03/12/2015 10:30"
"1","19","50","03/12/2015 10:25"
"1","19","50","03/12/2015 10:20"
"1","19","50","03/12/2015 10:15"
"1","20","50","03/12/2015 10:10"
"1","20","50","03/12/2015 10:05"
"1","20","50","03/12/2015 10:00"
"1","20","50","03/12/2015 09:55"
"1","20","50","03/12/2015 09:50"
"1","20","50","03/12/2015 09:45"
"1","20","50","03/12/2015 09:40"
"1","20","50","03/12/2015 09:35"
"1","20","50","03/12/2015 09:30"
"1","20","50","03/12/2015 09:25"
"1","20","50","03/12/2015 09:20"
"1","20","51","03/12/2015 09:15"
"1","21","49","03/12/2015 09:10"
"1","21","50","03/12/2015 09:05"
"1","21","50","03/12/2015 09:00"
"1","20","53","03/12/2015 08:55"
"1","20","53","03/12/2015 08:50"
"1","20","53","03/12/2015 08:45"
"1","20","53","03/12/2015 08:40"
"1","20","52","03/12/2015 08:35"
"1","20","51","03/12/2015 08:30"
"1","19","50","03/12/2015 08:25"
"1","19","49","03/12/2015 08:20"
"1","19","49","03/12/2015 08:15"
"1","19","50","03/12/2015 08:10"
"1","19","49","03/12/2015 08:05"
"1","19","49","03/12/2015 08:00"
"1","20","51","03/12/2015 07:55"
"1","20","52","03/12/2015 07:50"
"1","20","52","03/12/2015 07:45"
"1","19","52","03/12/2015 07:40"
"1","19","52","03/12/2015 07:35"
"1","19","52","03/12/2015 07:30"
"1","19","52","03/12/2015 07:25"
"1","19","51","03/12/2015 07:20"
"1","19","51","03/12/2015 07:15"
"1","19","51","03/12/2015 07:10"
"1","19","51","03/12/2015 07:05"
"1","19","51","03/12/2015 07:00"
"1","19","51","03/12/2015 06:55"
"1","19","51","03/12/2015 06:50"
"1","19","51","03/12/2015 06:45"
"1","19","51","03/12/2015 06:40"
"1","19","52","03/12/2015 06:35"
"1","19","52","03/12/2015 06:30"
"1","19","51","03/12/2015 06:25"
"1","19","51","03/12/2015 06:20"
"1","19","51","03/12/2015 06:15"
"1","19","51","03/12/2015 06:10"
"1","19","52","03/12/2015 06:05"
"1","19","52","03/12/2015 06:00"
"1","19","52","03/12/2015 05:55"
"1","19","52","03/12/2015 05:50"
"1","19","52","03/12/2015 05:45"
"1","19","52","03/12/2015 05:40"
"1","19","52","03/12/2015 05:35"
"1","19","52","03/12/2015 05:30"
"1","19","52","03/12/2015 05:25"
"1","19","52","03/12/2015 05:20"
"1","19","52","03/12/2015 05:15"
"1","19","52","03/12/2015 05:10"
"1","19","52","03/12/2015 05:05"
"1","19","52","03/12/2015 05:00"
"1","19","52","03/12/2015 04:55"
"1","19","52","03/12/2015 04:50"
"1","19","52","03/12/2015 04:45"
"1","19","52","03/12/2015 04:40"
"1","19","52","03/12/2015 04:35"
"1","19","52","03/12/2015 04:30"
"1","19","52","03/12/2015 04:25"
"1","19","52","03/12/2015 04:20"
"1","19","52","03/12/2015 04:15"
"1","19","52","03/12/2015 04:10"
"1","19","52","03/12/2015 04:05"
"1","19","52","03/12/2015 04:00"
"1","19","52","03/12/2015 03:55"
"1","19","52","03/12/2015 03:50"
"1","19","52","03/12/2015 03:45"
"1","19","52","03/12/2015 03:40"
"1","19","52","03/12/2015 03:35"
"1","19","52","03/12/2015 03:30"
"1","19","52","03/12/2015 03:25"
"1","19","52","03/12/2015 03:20"
"1","19","52","03/12/2015 03:15"
"1","19","52","03/12/2015 03:10"
"1","19","52","03/12/2015 03:05"
"1","19","52","03/12/2015 03:00"
"1","19","52","03/12/2015 02:55"
"1","19","52","03/12/2015 02:50"
"1","19","52","03/12/2015 02:45"
"1","19","52","03/12/2015 02:40"
"1","19","52","03/12/2015 02:35"
"1","19","52","03/12/2015 02:30"
"1","19","52","03/12/2015 02:25"
"1","19","52","03/12/2015 02:20"
"1","19","52","03/12/2015 02:15"
"1","19","52","03/12/2015 02:10"
"1","19","51","03/12/2015 02:05"
"1","19","51","03/12/2015 02:00"
"1","19","51","03/12/2015 01:55"
"1","19","51","03/12/2015 01:50"
"1","19","51","03/12/2015 01:45"
"1","19","51","03/12/2015 01:40"
"1","19","51","03/12/2015 01:35"
"1","19","51","03/12/2015 01:30"
"1","19","51","03/12/2015 01:25"
"1","19","51","03/12/2015 01:20"
"1","19","51","03/12/2015 01:15"
"1","19","51","03/12/2015 01:10"
"1","19","52","03/12/2015 01:05"
"1","19","52","03/12/2015 01:00"
"1","19","52","03/12/2015 00:55"
"1","19","52","03/12/2015 00:50"
"1","19","52","03/12/2015 00:45"
"1","19","52","03/12/2015 00:40"
"1","19","52","03/12/2015 00:35"
"1","19","52","03/12/2015 00:30"
"1","19","52","03/12/2015 00:25"
"1","20","52","03/12/2015 00:20"
"1","20","52","03/12/2015 00:15"
"1","20","52","03/12/2015 00:10"
"1","20","52","03/12/2015 00:05"
"1","20","52","03/12/2015 00:00"
"1","20","52","02/12/2015 23:55"
"1","20","52","02/12/2015 23:50"
"1","20","52","02/12/2015 23:45"
"1","20","52","02/12/2015 23:40"
"1","20","52","02/12/2015 23:35"
"1","20","52","02/12/2015 23:30"
"1","20","52","02/12/2015 23:25"
"1","20","52","02/12/2015 23:20"
"1","20","51","02/12/2015 23:15"
"1","20","50","02/12/2015 23:10"
"1","20","49","02/12/2015 23:05"
"1","20","49","02/12/2015 23:00"
"1","20","49","02/12/2015 22:55"
"1","20","49","02/12/2015 22:50"
"1","21","48","02/12/2015 22:45"
"1","21","48","02/12/2015 22:40"
"1","21","48","02/12/2015 22:35"
"1","21","48","02/12/2015 22:30"
"1","21","48","02/12/2015 22:25"
"1","20","51","02/12/2015 22:20"
"1","20","51","02/12/2015 22:15"
"1","21","47","02/12/2015 22:10"
"1","20","50","02/12/2015 22:05"
"1","8","69","10/11/2015 14:00"
"1","8","62","10/11/2015 13:55"
"1","8","62","10/11/2015 13:50"
"1","8","61","10/11/2015 13:45"
"1","8","63","10/11/2015 13:40"
"1","8","67","10/11/2015 13:35"
"1","8","70","10/11/2015 13:30"
"1","9","74","10/11/2015 13:25"
"1","9","79","10/11/2015 13:20"
"1","9","79","10/11/2015 13:15"
"1","9","79","10/11/2015 13:10"
"1","9","79","10/11/2015 13:05"
"1","9","78","10/11/2015 13:00"
"1","9","78","10/11/2015 12:55"
"1","9","78","10/11/2015 12:50"
"1","9","78","10/11/2015 12:45"
"1","9","77","10/11/2015 12:40"
"1","8","77","10/11/2015 12:35"
"1","8","76","10/11/2015 12:30"
"1","8","76","10/11/2015 12:25"
"1","8","75","10/11/2015 12:20"
"1","8","74","10/11/2015 12:15"
"1","8","74","10/11/2015 12:10"
"1","8","73","10/11/2015 12:05"
"1","8","73","10/11/2015 12:00"
"1","8","72","10/11/2015 11:55"
"1","8","70","10/11/2015 11:50"
"1","8","69","10/11/2015 11:45"
"1","7","66","10/11/2015 11:40"
"1","7","63","10/11/2015 11:35"
"1","7","59","10/11/2015 11:30"
"1","8","59","10/11/2015 11:25"
"1","8","61","10/11/2015 11:20"
"1","8","63","10/11/2015 11:15"
"1","8","67","10/11/2015 11:10"
"1","9","70","10/11/2015 11:05"
"1","9","74","10/11/2015 11:00"
"1","9","78","10/11/2015 10:55"
"1","9","79","10/11/2015 10:50"
"1","9","79","10/11/2015 10:45"
"1","9","79","10/11/2015 10:40"
"1","9","79","10/11/2015 10:35"
"1","9","78","10/11/2015 10:30"
"1","9","78","10/11/2015 10:25"
"1","9","77","10/11/2015 10:20"
"1","8","77","10/11/2015 10:15"
"1","8","76","10/11/2015 10:10"
"1","8","75","10/11/2015 10:05"
"1","8","74","10/11/2015 10:00"
"1","8","73","10/11/2015 09:55"
"1","8","72","10/11/2015 09:50"
"1","8","71","10/11/2015 09:45"
"1","8","69","10/11/2015 09:40"
"1","8","66","10/11/2015 09:35"
"1","8","63","10/11/2015 09:30"
"1","8","60","10/11/2015 09:25"
"1","8","60","10/11/2015 09:20"
"1","8","62","10/11/2015 09:15"
"1","8","64","10/11/2015 09:10"
"1","8","68","10/11/2015 09:05"
"1","9","71","10/11/2015 09:00"
"1","9","74","10/11/2015 08:55"
"1","9","78","10/11/2015 08:50"
"1","9","80","10/11/2015 08:45"
"1","9","80","10/11/2015 08:40"
"1","9","79","10/11/2015 08:35"
"1","9","79","10/11/2015 08:30"
"1","9","78","10/11/2015 08:25"
"1","9","78","10/11/2015 08:20"
"1","9","77","10/11/2015 08:15"
"1","8","75","10/11/2015 08:10"
"1","8","74","10/11/2015 08:05"
"1","8","72","10/11/2015 08:00"
"1","8","70","10/11/2015 07:55"
"1","8","67","10/11/2015 07:50"
"1","7","59","10/11/2015 07:45"
"1","8","57","10/11/2015 07:40"
"1","8","58","10/11/2015 07:35"
"1","8","60","10/11/2015 07:30"
"1","8","63","10/11/2015 07:25"
"1","8","67","10/11/2015 07:20"
"1","9","71","10/11/2015 07:15"
"1","9","74","10/11/2015 07:10"
"1","9","78","10/11/2015 07:05"
"1","9","78","10/11/2015 07:00"
"1","9","78","10/11/2015 06:55"
"1","9","77","10/11/2015 06:50"
"1","9","77","10/11/2015 06:45"
"1","9","77","10/11/2015 06:40"
"1","9","77","10/11/2015 06:35"
"1","8","77","10/11/2015 06:30"
"1","8","76","10/11/2015 06:25"
"1","8","76","10/11/2015 06:20"
"1","8","76","10/11/2015 06:15"
"1","8","75","10/11/2015 06:10"
"1","8","75","10/11/2015 06:05"
"1","8","74","10/11/2015 06:00"
"1","8","74","10/11/2015 05:55"
"1","8","74","10/11/2015 05:50"
"1","8","73","10/11/2015 05:45"
"1","8","72","10/11/2015 05:40"
"1","8","72","10/11/2015 05:35"
"1","8","71","10/11/2015 05:30"
"1","8","69","10/11/2015 05:25"
"1","8","68","10/11/2015 05:20"
"1","7","65","10/11/2015 05:15"
"1","7","62","10/11/2015 05:10"
"1","7","59","10/11/2015 05:05"
"1","8","58","10/11/2015 05:00"
"1","8","60","10/11/2015 04:55"
"1","8","63","10/11/2015 04:50"
"1","8","67","10/11/2015 04:45"
"1","8","71","10/11/2015 04:40"
"1","9","74","10/11/2015 04:35"
"1","9","78","10/11/2015 04:30"
"1","9","78","10/11/2015 04:25"
"1","9","78","10/11/2015 04:20"
"1","9","78","10/11/2015 04:15"
"1","9","78","10/11/2015 04:10"
"1","9","78","10/11/2015 04:05"
"1","9","77","10/11/2015 04:00"
"1","8","77","10/11/2015 03:55"
"1","8","77","10/11/2015 03:50"
"1","8","76","10/11/2015 03:45"
"1","8","76","10/11/2015 03:40"
"1","8","76","10/11/2015 03:35"
"1","8","75","10/11/2015 03:30"
"1","8","75","10/11/2015 03:25"
"1","8","74","10/11/2015 03:20"
"1","8","74","10/11/2015 03:15"
"1","8","73","10/11/2015 03:10"
"1","8","73","10/11/2015 03:05"
"1","8","72","10/11/2015 03:00"
"1","8","71","10/11/2015 02:55"
"1","8","70","10/11/2015 02:50"
"1","8","69","10/11/2015 02:45"
"1","7","66","10/11/2015 02:40"
"1","7","64","10/11/2015 02:35"
"1","7","60","10/11/2015 02:30"
"1","8","58","10/11/2015 02:25"
"1","8","60","10/11/2015 02:20"
"1","8","62","10/11/2015 02:15"
"1","8","66","10/11/2015 02:10"
"1","8","70","10/11/2015 02:05"
"1","9","73","10/11/2015 02:00"
"1","9","77","10/11/2015 01:55"
"1","9","79","10/11/2015 01:50"
"1","9","79","10/11/2015 01:45"
"1","9","79","10/11/2015 01:40"
"1","9","78","10/11/2015 01:35"
"1","9","78","10/11/2015 01:30"
"1","9","78","10/11/2015 01:25"
"1","9","78","10/11/2015 01:20"
"1","8","78","10/11/2015 01:15"
"1","8","77","10/11/2015 01:10"
"1","8","77","10/11/2015 01:05"
"1","8","77","10/11/2015 01:00"
"1","8","76","10/11/2015 00:55"
"1","8","76","10/11/2015 00:50"
"1","8","75","10/11/2015 00:45"
"1","8","75","10/11/2015 00:40"
"1","8","74","10/11/2015 00:35"
"1","8","74","10/11/2015 00:30"
"1","8","73","10/11/2015 00:25"
"1","8","72","10/11/2015 00:20"
"1","8","71","10/11/2015 00:15"
"1","8","70","10/11/2015 00:10"
"1","8","68","10/11/2015 00:05"
"1","7","66","10/11/2015 00:00"
"1","7","63","09/11/2015 23:55"
"1","7","60","09/11/2015 23:50"
"1","8","61","09/11/2015 23:45"
"1","8","63","09/11/2015 23:40"
"1","8","67","09/11/2015 23:35"
"1","8","70","09/11/2015 23:30"
"1","9","74","09/11/2015 23:25"
"1","9","79","09/11/2015 23:20"
"1","9","80","09/11/2015 23:15"
"1","9","80","09/11/2015 23:10"
"1","9","80","09/11/2015 23:05"
"1","9","80","09/11/2015 23:00"
"1","9","80","09/11/2015 22:55"
"1","9","79","09/11/2015 22:50"
"1","9","79","09/11/2015 22:45"
"1","9","79","09/11/2015 22:40"
"1","9","78","09/11/2015 22:35"
"1","8","77","09/11/2015 22:30"
"1","8","76","09/11/2015 22:25"
"1","8","75","09/11/2015 22:20"
"1","8","74","09/11/2015 22:15"
"1","8","74","09/11/2015 22:10"
"1","8","74","09/11/2015 22:05"
"1","8","73","09/11/2015 22:00"
"1","8","72","09/11/2015 21:55"
"1","8","71","09/11/2015 21:50"
"1","8","70","09/11/2015 21:45"
"1","8","68","09/11/2015 21:40"
"1","7","66","09/11/2015 21:35"
"1","7","63","09/11/2015 21:30"
"1","7","59","09/11/2015 21:25"
"1","8","60","09/11/2015 21:20"
"1","8","63","09/11/2015 21:15"
"1","8","66","09/11/2015 21:10"
"1","8","70","09/11/2015 21:05"
"1","9","74","09/11/2015 21:00"
"1","9","78","09/11/2015 20:55"
"1","9","80","09/11/2015 20:50"
"1","9","80","09/11/2015 20:45"
"1","9","79","09/11/2015 20:40"
"1","9","79","09/11/2015 20:35"
"1","9","79","09/11/2015 20:30"
"1","9","79","09/11/2015 20:25"
"1","9","79","09/11/2015 20:20"
"1","8","78","09/11/2015 20:15"
"1","8","78","09/11/2015 20:10"
"1","8","78","09/11/2015 20:05"
"1","8","77","09/11/2015 20:00"
"1","8","77","09/11/2015 19:55"
"1","8","76","09/11/2015 19:50"
"1","8","76","09/11/2015 19:45"
"1","8","75","09/11/2015 19:40"
"1","8","74","09/11/2015 19:35"
"1","8","74","09/11/2015 19:30"
"1","8","73","09/11/2015 19:25"
"1","8","72","09/11/2015 19:20"
"1","8","71","09/11/2015 19:15"
"1","8","69","09/11/2015 19:10"
"1","7","66","09/11/2015 19:05"
"1","7","64","09/11/2015 19:00"
"1","8","61","09/11/2015 18:55"
"1","8","62","09/11/2015 18:50"
"1","8","64","09/11/2015 18:45"
"1","8","68","09/11/2015 18:40"
"1","8","71","09/11/2015 18:35"
"1","9","75","09/11/2015 18:30"
"1","9","79","09/11/2015 18:25"
"1","9","81","09/11/2015 18:20"
"1","9","79","09/11/2015 18:15"
"1","9","79","09/11/2015 18:10"
"1","9","79","09/11/2015 18:05"
"1","9","78","09/11/2015 18:00"
"1","9","78","09/11/2015 17:55"
"1","9","77","09/11/2015 17:50"
"1","9","76","09/11/2015 17:45"
"1","8","75","09/11/2015 17:40"
"1","8","74","09/11/2015 17:35"
"1","8","72","09/11/2015 17:30"
"1","8","66","09/11/2015 17:25"
"1","8","65","09/11/2015 17:20"
"1","8","66","09/11/2015 17:15"
"1","8","64","09/11/2015 17:10"
"1","8","68","09/11/2015 17:05"
"1","9","72","09/11/2015 17:00"
"1","9","75","09/11/2015 16:55"
"1","9","79","09/11/2015 16:50"
"1","9","81","09/11/2015 16:45"
"1","9","80","09/11/2015 16:40"
"1","9","79","09/11/2015 16:35"
"1","9","77","09/11/2015 16:30"
"1","8","77","09/11/2015 16:25"
"1","8","77","09/11/2015 16:20"
"1","8","76","09/11/2015 16:15"
"1","8","76","09/11/2015 16:10"
"1","8","75","09/11/2015 16:05"
"1","8","73","09/11/2015 16:00"
"1","8","72","09/11/2015 15:55"
"1","8","72","09/11/2015 15:50"
"1","8","70","09/11/2015 15:45"
"1","8","69","09/11/2015 15:40"
"1","8","68","09/11/2015 15:35"
"1","8","65","09/11/2015 15:30"
"1","8","63","09/11/2015 15:25"
"1","8","61","09/11/2015 15:20"
"1","8","61","09/11/2015 15:15"
"1","8","55","09/11/2015 15:10"
"1","8","57","09/11/2015 15:05"
"1","8","58","09/11/2015 15:00"
"1","8","59","09/11/2015 14:55"
"1","8","63","09/11/2015 14:50"
"1","8","67","09/11/2015 14:45"
"1","8","70","09/11/2015 14:40"
"1","8","70","09/11/2015 14:35"
"1","8","69","09/11/2015 14:30"
"1","8","67","09/11/2015 14:25"
"1","8","65","09/11/2015 14:20"
"1","8","64","09/11/2015 14:15"
"1","8","63","09/11/2015 14:10"
"1","8","63","09/11/2015 14:05"
"1","8","70","07/11/2015 21:15"
"1","9","74","07/11/2015 21:10"
"1","9","78","07/11/2015 21:05"
"1","9","79","07/11/2015 21:00"
"1","9","79","07/11/2015 20:55"
"1","9","78","07/11/2015 20:50"
"1","9","76","07/11/2015 20:45"
"1","9","75","07/11/2015 20:40"
"1","8","75","07/11/2015 20:35"
"1","8","74","07/11/2015 20:30"
"1","8","74","07/11/2015 20:25"
"1","8","74","07/11/2015 20:20"
"1","8","73","07/11/2015 20:15"
"1","8","72","07/11/2015 20:10"
"1","8","71","07/11/2015 20:05"
"1","8","70","07/11/2015 20:00"
"1","8","69","07/11/2015 19:55"
"1","8","67","07/11/2015 19:50"
"1","8","64","07/11/2015 19:45"
"1","8","61","07/11/2015 19:40"
"1","8","61","07/11/2015 19:35"
"1","8","63","07/11/2015 19:30"
"1","8","63","07/11/2015 19:25"
"1","8","65","07/11/2015 19:20"
"1","8","69","07/11/2015 19:15"
"1","9","72","07/11/2015 19:10"
"1","9","76","07/11/2015 19:05"
"1","9","78","07/11/2015 19:00"
"1","9","78","07/11/2015 18:55"
"1","9","78","07/11/2015 18:50"
"1","9","78","07/11/2015 18:45"
"1","9","77","07/11/2015 18:40"
"1","9","77","07/11/2015 18:35"
"1","9","76","07/11/2015 18:30"
"1","9","76","07/11/2015 18:25"
"1","9","75","07/11/2015 18:20"
"1","9","74","07/11/2015 18:15"
"1","9","72","07/11/2015 18:10"
"1","10","72","07/11/2015 18:05"
"1","11","69","07/11/2015 18:00"
"1","14","72","07/11/2015 17:55"
"1","15","75","07/11/2015 17:50"
"1","15","74","07/11/2015 17:45"
"1","15","74","07/11/2015 17:40"
"1","15","74","07/11/2015 17:35"
"1","15","74","07/11/2015 17:30"
"1","15","74","07/11/2015 17:25"
"1","15","74","07/11/2015 17:20"
"1","15","74","07/11/2015 17:15"
"1","15","74","07/11/2015 17:10"
"1","15","74","07/11/2015 17:05"
"1","15","74","07/11/2015 17:00"
"1","15","74","07/11/2015 16:55"
"1","15","74","07/11/2015 16:50"
"1","15","74","07/11/2015 16:45"
"1","15","74","07/11/2015 16:40"
"1","15","74","07/11/2015 16:35"
"1","15","74","07/11/2015 16:30"
"1","15","74","07/11/2015 16:25"
"1","15","74","07/11/2015 16:20"
"1","15","74","07/11/2015 16:15"
"1","15","74","07/11/2015 16:10"
"1","15","74","07/11/2015 16:05"
"1","15","74","07/11/2015 16:00"
"1","15","74","07/11/2015 15:55"
"1","15","74","07/11/2015 15:50"
"1","15","74","07/11/2015 15:45"
"1","15","74","07/11/2015 15:40"
"1","15","74","07/11/2015 15:35"
"1","15","73","07/11/2015 15:30"
"1","15","73","07/11/2015 15:25"
"1","15","73","07/11/2015 15:20"
"1","15","73","07/11/2015 15:15"
"1","15","73","07/11/2015 15:10"
"1","15","73","07/11/2015 15:05"
"1","15","73","07/11/2015 15:00"
"1","15","73","07/11/2015 14:55"
"1","15","73","07/11/2015 14:50"
"1","15","73","07/11/2015 14:45"
"1","15","72","07/11/2015 14:40"
"1","15","72","07/11/2015 14:35"
"1","15","73","07/11/2015 14:30"
"1","15","72","07/11/2015 14:25"
"1","15","72","07/11/2015 14:20"
"1","15","72","07/11/2015 14:15"
"1","15","72","07/11/2015 14:10"
"1","15","72","07/11/2015 14:05"
"1","15","72","07/11/2015 14:00"
"1","15","72","07/11/2015 13:55"
"1","15","72","07/11/2015 13:50"
"1","15","72","07/11/2015 13:45"
"1","15","72","07/11/2015 13:40"
"1","15","72","07/11/2015 13:35"
"1","15","72","07/11/2015 13:30"
"1","15","71","07/11/2015 13:25"
"1","15","71","07/11/2015 13:20"
"1","15","71","07/11/2015 13:15"
"1","15","71","07/11/2015 13:10"
"1","15","71","07/11/2015 13:05"
"1","15","71","07/11/2015 13:00"
"1","15","71","07/11/2015 12:55"
"1","15","71","07/11/2015 12:50"
"1","15","70","07/11/2015 12:45"
"1","15","70","07/11/2015 12:40"
"1","15","70","07/11/2015 12:35"
"1","15","70","07/11/2015 12:30"
"1","15","70","07/11/2015 12:25"
"1","15","70","07/11/2015 12:20"
"1","15","70","07/11/2015 12:15"
"1","15","70","07/11/2015 12:10"
"1","15","70","07/11/2015 12:05"
"1","15","70","07/11/2015 12:00"
"1","15","70","07/11/2015 11:55"
"1","15","70","07/11/2015 11:50"
"1","15","70","07/11/2015 11:45"
"1","15","70","07/11/2015 11:40"
"1","15","69","07/11/2015 11:35"
"1","15","69","07/11/2015 11:30"
"1","15","69","07/11/2015 11:25"
"1","15","69","07/11/2015 11:20"
"1","15","69","07/11/2015 11:15"
"1","15","69","07/11/2015 11:10"
"1","15","69","07/11/2015 11:05"
"1","15","69","07/11/2015 11:00"
"1","15","69","07/11/2015 10:55"
"1","15","69","07/11/2015 10:50"
"1","15","69","07/11/2015 10:45"
"1","15","69","07/11/2015 10:40"
"1","15","69","07/11/2015 10:35"
"1","15","70","07/11/2015 10:30"
"1","15","70","07/11/2015 10:25"
"1","15","70","07/11/2015 10:20"
"1","15","70","07/11/2015 10:15"
"1","15","70","07/11/2015 10:10"
"1","15","70","07/11/2015 10:05"
"1","15","70","07/11/2015 10:00"
"1","15","70","07/11/2015 09:55"
"1","15","70","07/11/2015 09:50"
"1","15","70","07/11/2015 09:45"
"1","15","70","07/11/2015 09:40"
"1","15","70","07/11/2015 09:35"
"1","14","70","07/11/2015 09:30"
"1","14","70","07/11/2015 09:25"
"1","14","70","07/11/2015 09:20"
"1","14","70","07/11/2015 09:15"
"1","14","70","07/11/2015 09:10"
"1","14","70","07/11/2015 09:05"
"1","14","70","07/11/2015 09:00"
"1","14","70","07/11/2015 08:55"
"1","14","70","07/11/2015 08:50"
"1","14","70","07/11/2015 08:45"
"1","14","70","07/11/2015 08:40"
"1","14","70","07/11/2015 08:35"
"1","14","70","07/11/2015 08:30"
"1","14","70","07/11/2015 08:25"
"1","14","70","07/11/2015 08:20"
"1","14","70","07/11/2015 08:15"
"1","14","70","07/11/2015 08:10"
"1","14","70","07/11/2015 08:05"